Location: Winthrop
(48.4780°N, 120.1850°W)
Time: 03:32:48
(UTC-08:00)

Vanguard 1 Rocket - Pass Details

Date: 30 November 2023
Orbit: 654 x 4218 km, 34.3° (Epoch: 24 February)

Event Time Altitude Azimuth Distance (km) Brightness Sun altitude
Rises 04:39:16 0° 212° (SSW) 8,111 12.0 -27.5°
Reaches altitude 10° 04:46:52 10° 201° (SSW) 6,630 11.6 -26.2°
Maximum altitude 05:00:49 25° 157° (SSE) 4,252 11.0 -23.9°
Drops below altitude 10° 05:09:59 10° 109° (ESE) 4,271 11.9 -22.4°
Sets 05:13:27 0° 95° (E) 4,812 12.6 -21.9°
